RCH401 OMAD-PTKK

Flight info

Callsign RCH401
Flight time N/A
Altitude 35000
Route LABRI N318 GEVED N881 GIDAN N629 TOTOX P574 MADOG/N0469F370 P574 DUBTA/N0465F390 P574 PUGER R461 VIDEX Y511 TOPOR A464 IRTAD B338 AKVOM M630 JUNHA M774 OBDOS L504 OSRUT W36 TELES A450 TNUGE DCT 07N139E 07N141E 07N143E 07N145E 07N147E 07N149E DCT DAMAY
Aircraft B737/M-SADE2FGHIJ4J5M1P2P3RTUWXYZ/HB1D1

Departure

Time 2026-04-17 18:59
Airport Al Bateen Executive Airport (OMAD)

Arrival

Time N/A
Airport Chuuk International Airport (PTKK)
Time Latitude Longitude Altitude Speed Heading
2026-04-17 18:32 24.43083 54.44987 25 ft 0 kts 308°
2026-04-17 18:52 24.43085 54.44985 23 ft 2 kts 308°
2026-04-17 18:52 24.43102 54.44977 24 ft 3 kts 358°
2026-04-17 18:53 24.43132 54.44994 23 ft 7 kts 38°
2026-04-17 18:53 24.43159 54.45039 26 ft 8 kts 104°
2026-04-17 18:53 24.43121 54.45099 24 ft 12 kts 128°
2026-04-17 18:53 24.43059 54.45186 26 ft 17 kts 128°
2026-04-17 18:54 24.42981 54.45293 23 ft 18 kts 127°
2026-04-17 18:54 24.42908 54.45399 24 ft 17 kts 127°
2026-04-17 18:54 24.42831 54.45505 24 ft 18 kts 130°
2026-04-17 18:54 24.42757 54.45609 23 ft 17 kts 128°
2026-04-17 18:55 24.42683 54.45708 22 ft 16 kts 127°
2026-04-17 18:55 24.42613 54.45811 22 ft 18 kts 130°
2026-04-17 18:55 24.42534 54.45920 22 ft 19 kts 128°
2026-04-17 18:55 24.42453 54.46033 22 ft 19 kts 128°
2026-04-17 18:56 24.42374 54.46142 22 ft 18 kts 129°
2026-04-17 18:56 24.42292 54.46256 22 ft 19 kts 127°
2026-04-17 18:56 24.42211 54.46371 22 ft 20 kts 128°
2026-04-17 18:56 24.42123 54.46496 21 ft 20 kts 129°
2026-04-17 18:57 24.42037 54.46617 21 ft 20 kts 129°
2026-04-17 18:57 24.41952 54.46733 21 ft 19 kts 127°
2026-04-17 18:57 24.41873 54.46846 23 ft 19 kts 129°
2026-04-17 18:57 24.41842 54.46934 21 ft 11 kts 66°
2026-04-17 18:58 24.41899 54.46987 23 ft 11 kts 38°
2026-04-17 18:58 24.41964 54.47026 20 ft 9 kts 342°
2026-04-17 18:58 24.41976 54.47012 20 ft 0 kts 307°
2026-04-17 18:58 24.41981 54.47006 20 ft 10 kts 306°
2026-04-17 18:59 24.42196 54.46705 21 ft 89 kts 308°
2026-04-17 18:59 24.42728 54.45965 23 ft 156 kts 308°
2026-04-17 18:59 24.43481 54.44917 362 ft 187 kts 308°
2026-04-17 18:59 24.44290 54.43782 1288 ft 189 kts 301°
2026-04-17 19:00 24.44924 54.42440 1898 ft 211 kts 297°
2026-04-17 19:00 24.45612 54.40939 2322 ft 225 kts 297°
2026-04-17 19:00 24.46322 54.39400 2944 ft 228 kts 298°
2026-04-17 19:00 24.47053 54.37831 3557 ft 238 kts 298°
2026-04-17 19:01 24.47830 54.36167 4320 ft 247 kts 298°
2026-04-17 19:01 24.48620 54.34493 5383 ft 248 kts 301°
2026-04-17 19:01 24.49766 54.33103 6221 ft 254 kts 321°
2026-04-17 19:01 24.51336 54.32142 6921 ft 263 kts 334°
2026-04-17 19:02 24.53048 54.31401 7708 ft 265 kts 336°
2026-04-17 19:02 24.54808 54.30747 8474 ft 271 kts 347°
2026-04-17 19:02 24.56718 54.30896 9185 ft 285 kts 14°
2026-04-17 19:02 24.58496 54.31934 9929 ft 297 kts 35°
2026-04-17 19:03 24.59901 54.33669 10412 ft 318 kts 56°
2026-04-17 19:03 24.60703 54.36039 10572 ft 347 kts 79°
2026-04-17 19:03 24.60781 54.38737 10751 ft 371 kts 94°
2026-04-17 19:03 24.60115 54.41546 10978 ft 388 kts 115°
2026-04-17 19:04 24.58840 54.44149 11787 ft 386 kts 121°
2026-04-17 19:04 24.57449 54.46679 12503 ft 388 kts 121°
2026-04-17 19:04 24.56071 54.49247 13131 ft 392 kts 120°
2026-04-17 19:04 24.54746 54.51877 13815 ft 394 kts 118°
2026-04-17 19:05 24.53480 54.54552 14411 ft 396 kts 117°
2026-04-17 19:05 24.52249 54.57281 14916 ft 402 kts 116°
2026-04-17 19:05 24.51026 54.60077 15308 ft 410 kts 116°
2026-04-17 19:05 24.49824 54.62875 15878 ft 412 kts 116°
2026-04-17 19:06 24.48609 54.65729 16469 ft 413 kts 116°
2026-04-17 19:06 24.47390 54.68600 17008 ft 417 kts 116°
2026-04-17 19:06 24.46161 54.71496 17522 ft 420 kts 116°
2026-04-17 19:06 24.44921 54.74415 18031 ft 424 kts 116°
2026-04-17 19:07 24.43670 54.77357 18480 ft 428 kts 116°
2026-04-17 19:07 24.42406 54.80325 18908 ft 431 kts 116°
2026-04-17 19:07 24.41136 54.83306 19392 ft 432 kts 116°
2026-04-17 19:07 24.39861 54.86295 19874 ft 433 kts 116°
2026-04-17 19:08 24.38596 54.89257 20315 ft 436 kts 116°
2026-04-17 19:08 24.37307 54.92273 20745 ft 438 kts 116°
2026-04-17 19:08 24.36011 54.95307 21156 ft 440 kts 117°
2026-04-17 19:08 24.34705 54.98358 21563 ft 443 kts 117°
2026-04-17 19:09 24.33392 55.01423 21983 ft 445 kts 117°
2026-04-17 19:09 24.32074 55.04500 22430 ft 446 kts 117°
2026-04-17 19:09 24.30752 55.07583 22845 ft 448 kts 117°
2026-04-17 19:09 24.29424 55.10678 23230 ft 450 kts 117°
2026-04-17 19:10 24.28107 55.13746 23576 ft 452 kts 117°
2026-04-17 19:10 24.26766 55.16867 23874 ft 454 kts 117°
2026-04-17 19:10 24.25417 55.20006 24164 ft 456 kts 117°
2026-04-17 19:10 24.24062 55.23157 24444 ft 458 kts 117°
2026-04-17 19:11 24.22701 55.26319 24718 ft 460 kts 117°
2026-04-17 19:11 24.21331 55.29499 24929 ft 464 kts 117°
2026-04-17 19:11 24.19950 55.32703 25138 ft 467 kts 117°
2026-04-17 19:11 24.18560 55.35927 25394 ft 468 kts 117°
2026-04-17 19:12 24.17185 55.39113 25683 ft 469 kts 117°
2026-04-17 19:12 24.15789 55.42344 25963 ft 471 kts 117°
2026-04-17 19:12 24.14389 55.45583 26218 ft 472 kts 117°
2026-04-17 19:12 24.12981 55.48839 26474 ft 474 kts 117°
2026-04-17 19:13 24.11567 55.52107 26722 ft 476 kts 117°
2026-04-17 19:13 24.10627 55.54278 26887 ft 477 kts 117°
2026-04-17 19:13 24.08721 55.58681 27211 ft 480 kts 117°
2026-04-17 19:13 24.07291 55.61980 27463 ft 481 kts 117°
2026-04-17 19:14 24.05870 55.65250 27707 ft 482 kts 117°
2026-04-17 19:14 24.04369 55.68530 27947 ft 483 kts 119°
2026-04-17 19:14 24.02803 55.71794 28163 ft 485 kts 120°
2026-04-17 19:14 24.01218 55.75050 28394 ft 486 kts 120°
2026-04-17 19:15 23.99627 55.78324 28630 ft 488 kts 120°
2026-04-17 19:15 23.98577 55.80497 28773 ft 489 kts 119°
2026-04-17 19:15 23.96988 55.83802 28886 ft 493 kts 119°
2026-04-17 19:15 23.95397 55.87129 29109 ft 494 kts 119°
2026-04-17 19:16 23.93290 55.91542 29431 ft 495 kts 119°
2026-04-17 19:16 23.91698 55.94876 29630 ft 497 kts 119°
2026-04-17 19:16 23.90094 55.98232 29817 ft 498 kts 119°
2026-04-17 19:16 23.88487 56.01586 30010 ft 500 kts 119°
2026-04-17 19:17 23.86870 56.04956 30182 ft 501 kts 119°
2026-04-17 19:17 23.85797 56.07191 30328 ft 501 kts 120°
2026-04-17 19:17 23.84184 56.10550 30569 ft 500 kts 119°
2026-04-17 19:17 23.82564 56.13921 30740 ft 501 kts 119°
2026-04-17 19:18 23.80419 56.18384 30962 ft 502 kts 119°
2026-04-17 19:18 23.78797 56.21758 31181 ft 501 kts 119°
2026-04-17 19:18 23.77182 56.25115 31448 ft 500 kts 119°
2026-04-17 19:18 23.75569 56.28465 31724 ft 498 kts 119°
2026-04-17 19:19 23.74505 56.30676 31902 ft 498 kts 120°
2026-04-17 19:19 23.72896 56.34015 32121 ft 497 kts 120°
2026-04-17 19:19 23.71287 56.37351 32342 ft 496 kts 120°
2026-04-17 19:19 23.69159 56.41758 32616 ft 496 kts 120°
2026-04-17 19:20 23.68075 56.44003 32777 ft 494 kts 119°
2026-04-17 19:20 23.66477 56.47311 33121 ft 490 kts 119°
2026-04-17 19:20 23.64891 56.50590 33390 ft 489 kts 119°
2026-04-17 19:20 23.63325 56.53825 33556 ft 489 kts 119°
2026-04-17 19:21 23.61738 56.57103 33703 ft 489 kts 119°
2026-04-17 19:21 23.60154 56.60371 34001 ft 485 kts 119°
2026-04-17 19:21 23.58586 56.63605 34291 ft 481 kts 119°
2026-04-17 19:21 23.57023 56.66827 34435 ft 481 kts 119°
2026-04-17 19:22 23.54945 56.71106 34536 ft 483 kts 119°
2026-04-17 19:22 23.53882 56.73292 34611 ft 483 kts 119°
2026-04-17 19:22 23.52314 56.76517 34757 ft 482 kts 119°
2026-04-17 19:22 23.50767 56.79700 34925 ft 481 kts 119°
2026-04-17 19:23 23.46046 56.89392 34984 ft 485 kts 119°
2026-04-17 19:24 23.42870 56.95903 34999 ft 487 kts 119°
2026-04-17 19:24 23.39688 57.02423 34998 ft 488 kts 119°
2026-04-17 19:25 23.36536 57.08920 34986 ft 489 kts 118°
2026-04-17 19:25 23.33525 57.15549 34993 ft 489 kts 117°
2026-04-17 19:26 23.30556 57.22198 34987 ft 489 kts 117°
2026-04-17 19:26 23.27562 57.28844 34996 ft 489 kts 117°
2026-04-17 19:27 23.24551 57.35479 35004 ft 489 kts 118°
2026-04-17 19:27 23.21556 57.42061 34988 ft 489 kts 118°
2026-04-17 19:28 23.19351 57.49027 34995 ft 489 kts 103°
2026-04-17 19:28 23.17993 57.56268 34999 ft 489 kts 102°
2026-04-17 19:29 23.16644 57.63525 34965 ft 490 kts 103°
2026-04-17 19:29 23.15245 57.70709 34972 ft 490 kts 103°
2026-04-17 19:30 23.13898 57.77475 34963 ft 488 kts 103°
2026-04-17 19:30 23.12457 57.84679 34953 ft 488 kts 103°
2026-04-17 19:31 23.11014 57.91887 34944 ft 488 kts 103°
2026-04-17 19:31 23.09579 57.99047 34946 ft 488 kts 104°
2026-04-17 19:32 23.08132 58.06250 34931 ft 489 kts 104°
2026-04-17 19:32 23.06682 58.13456 34936 ft 488 kts 104°
2026-04-17 19:33 23.05228 58.20662 34929 ft 488 kts 104°
2026-04-17 19:33 23.03773 58.27858 34916 ft 488 kts 104°
2026-04-17 19:34 23.02325 58.35005 34935 ft 488 kts 104°
2026-04-17 19:34 23.00646 58.42146 34936 ft 488 kts 108°
2026-04-17 19:35 22.98632 58.49185 34930 ft 489 kts 110°
2026-04-17 19:35 22.96588 58.56224 34925 ft 489 kts 109°
2026-04-17 19:36 22.94590 58.63239 34926 ft 490 kts 109°
2026-04-17 19:36 22.92596 58.70312 34930 ft 490 kts 109°
2026-04-17 19:37 22.90603 58.77385 34923 ft 491 kts 109°
2026-04-17 19:37 22.88603 58.84462 34934 ft 491 kts 109°
2026-04-17 19:38 22.86599 58.91536 34939 ft 491 kts 109°
2026-04-17 19:38 22.84602 58.98568 34936 ft 491 kts 109°
2026-04-17 19:39 22.82587 59.05654 34921 ft 492 kts 109°
2026-04-17 19:39 22.80570 59.12731 34943 ft 491 kts 109°
2026-04-17 19:40 22.78552 59.19803 34932 ft 491 kts 109°
2026-04-17 19:40 22.76548 59.26812 34911 ft 490 kts 109°
2026-04-17 19:41 22.74529 59.33857 34937 ft 490 kts 109°
2026-04-17 19:41 22.72507 59.40904 34911 ft 490 kts 109°
2026-04-17 19:42 22.70477 59.47961 34918 ft 491 kts 109°
2026-04-17 19:42 22.68439 59.55040 34913 ft 493 kts 109°
2026-04-17 19:43 22.66406 59.62087 34905 ft 494 kts 109°
2026-04-17 19:43 22.64355 59.69189 34902 ft 495 kts 109°
2026-04-17 19:44 22.62298 59.76295 34907 ft 495 kts 109°
2026-04-17 19:44 22.60236 59.83399 34906 ft 495 kts 109°
2026-04-17 19:45 22.58186 59.90450 34910 ft 494 kts 109°
2026-04-17 19:45 22.56124 59.97543 34893 ft 494 kts 109°
2026-04-17 19:46 22.54059 60.04635 34903 ft 494 kts 109°
2026-04-17 19:46 22.51994 60.11714 34916 ft 494 kts 109°
2026-04-17 19:47 22.49938 60.18751 34914 ft 494 kts 109°
2026-04-17 19:47 22.47865 60.25833 34914 ft 494 kts 109°
2026-04-17 19:48 22.45786 60.32920 34912 ft 494 kts 109°
2026-04-17 19:48 22.43707 60.39998 34914 ft 494 kts 109°
2026-04-17 19:49 22.41636 60.47034 34922 ft 494 kts 109°
2026-04-17 19:49 22.39549 60.54112 34916 ft 494 kts 109°
2026-04-17 19:50 22.37457 60.61195 34915 ft 494 kts 109°
2026-04-17 19:50 22.35366 60.68261 34915 ft 494 kts 109°
2026-04-17 19:51 22.33286 60.75278 34914 ft 494 kts 109°
2026-04-17 19:51 22.31191 60.82336 34912 ft 494 kts 109°
2026-04-17 19:52 22.29091 60.89395 34917 ft 493 kts 109°
2026-04-17 19:52 22.26990 60.96446 34914 ft 493 kts 109°
2026-04-17 19:53 22.24888 61.03488 34913 ft 493 kts 109°
2026-04-17 19:53 22.22797 61.10482 34907 ft 493 kts 110°
2026-04-17 19:54 22.20690 61.17517 34908 ft 493 kts 110°
2026-04-17 19:54 22.18645 61.24334 34916 ft 494 kts 110°
2026-04-17 19:55 22.16531 61.31388 34914 ft 495 kts 110°
2026-04-17 19:55 22.14421 61.38403 34921 ft 495 kts 110°
2026-04-17 19:56 22.12289 61.45469 34912 ft 496 kts 110°
2026-04-17 19:56 22.10154 61.52536 34913 ft 496 kts 110°
2026-04-17 19:57 22.08016 61.59598 34914 ft 496 kts 110°
2026-04-17 19:57 22.05874 61.66664 34915 ft 496 kts 110°
2026-04-17 19:58 22.03744 61.73681 34900 ft 496 kts 110°
2026-04-17 19:58 22.01595 61.80744 34918 ft 496 kts 110°
2026-04-17 19:59 21.99441 61.87811 34919 ft 497 kts 110°
2026-04-17 19:59 21.97296 61.94839 34919 ft 497 kts 110°
2026-04-17 20:00 21.95134 62.01913 34905 ft 497 kts 110°
2026-04-17 20:00 21.92971 62.08975 34924 ft 496 kts 110°
2026-04-17 20:01 21.90805 62.16034 34919 ft 496 kts 110°
2026-04-17 20:01 21.88655 62.23034 34909 ft 496 kts 110°
2026-04-17 20:02 21.86490 62.30072 34895 ft 495 kts 110°
2026-04-17 20:02 21.84311 62.37092 34910 ft 494 kts 112°
2026-04-17 20:03 21.81416 62.43746 34915 ft 490 kts 120°
2026-04-17 20:03 21.78242 62.50181 34918 ft 490 kts 121°
2026-04-17 20:04 21.75057 62.56671 34918 ft 490 kts 120°
2026-04-17 20:04 21.71912 62.63189 34907 ft 491 kts 120°
2026-04-17 20:05 21.68787 62.69714 34914 ft 491 kts 120°
2026-04-17 20:05 21.65689 62.76180 34898 ft 491 kts 120°
2026-04-17 20:06 21.62558 62.82702 34908 ft 491 kts 120°
2026-04-17 20:06 21.59424 62.89218 34912 ft 491 kts 120°
2026-04-17 20:07 21.56288 62.95729 34911 ft 491 kts 120°
2026-04-17 20:07 21.53170 63.02195 34909 ft 491 kts 120°
2026-04-17 20:08 21.50029 63.08701 34916 ft 491 kts 120°
2026-04-17 20:08 21.46884 63.15206 34912 ft 491 kts 121°
2026-04-17 20:09 21.43736 63.21712 34899 ft 491 kts 121°
2026-04-17 20:09 21.40589 63.28206 34911 ft 491 kts 121°
2026-04-17 20:10 21.37458 63.34658 34909 ft 491 kts 121°
2026-04-17 20:10 21.34302 63.41154 34911 ft 491 kts 121°
2026-04-17 20:11 21.31146 63.47643 34911 ft 491 kts 121°
2026-04-17 20:11 21.27987 63.54131 34911 ft 491 kts 121°